This is the latest recevied weather packets stored in our database for station/object KC9DRE. If no packets are shown the sender has not sent any weather packets the latest 10 day(s).
| Time | Temp. | Humidity | Pressure | Rain* | Wind** | Luminosity | Snow |
|---|---|---|---|---|---|---|---|
| 1787446783 | 20° C | 80% | 1015.7 hPa | 0 mm | - | 0 W/m² | - |
| 1787446478 | 20.56° C | 80% | 1015.6 hPa | 0 mm | - | 0 W/m² | - |
| 1787446174 | 21.11° C | 79% | 1015.5 hPa | 0 mm | - | 0 W/m² | - |
| 1787445870 | 21.11° C | 76% | 1015.3 hPa | 0 mm | - | 0 W/m² | - |
| 1787445566 | 21.67° C | 75% | 1015.4 hPa | 0 mm | - | 1 W/m² | - |
| 1787445261 | 22.22° C | 74% | 1015.4 hPa | 0 mm | - | 2 W/m² | - |
| 1787444957 | 22.78° C | 71% | 1015.3 hPa | 0 mm | - | 3 W/m² | - |
| 1787444653 | 22.78° C | 70% | 1015.3 hPa | 0 mm | - | 5 W/m² | - |
| 1787444349 | 23.33° C | 69% | 1015.1 hPa | 0 mm | - | 8 W/m² | - |
| 1787444049 | 23.89° C | 68% | 1015.3 hPa | 0 mm | - | 11 W/m² | - |
| 1787443748 | 23.89° C | 67% | 1015.3 hPa | 0 mm | - | 14 W/m² | - |
| 1787443443 | 24.44° C | 67% | 1015 hPa | 0 mm | - | 18 W/m² | - |
| 1787443142 | 24.44° C | 66% | 1015.2 hPa | 0 mm | - | 20 W/m² | - |
| 1787442837 | 25° C | 66% | 1015 hPa | 0 mm | - | 23 W/m² | - |
| 1787442534 | 25° C | 66% | 1014.9 hPa | 0 mm | - | 26 W/m² | - |
| 1787442229 | 25° C | 65% | 1014.8 hPa | 0 mm | - | 28 W/m² | - |
| 1787441924 | 25.56° C | 66% | 1014.8 hPa | 0 mm | - | 31 W/m² | - |
| 1787441619 | 25.56° C | 65% | 1014.9 hPa | 0 mm | - | 34 W/m² | - |
| 1787441314 | 25.56° C | 65% | 1015.1 hPa | 0 mm | - | 38 W/m² | - |
| 1787441010 | 26.11° C | 64% | 1014.8 hPa | 0 mm | - | 41 W/m² | - |
| 1787440706 | 26.11° C | 63% | 1014.8 hPa | 0 mm | - | 48 W/m² | - |
| 1787440401 | 26.11° C | 63% | 1014.7 hPa | 0 mm | - | 65 W/m² | - |
| 1787440098 | 26.67° C | 62% | 1014.6 hPa | 0 mm | - | 42 W/m² | - |
| 1787439792 | 26.67° C | 62% | 1014.6 hPa | 0 mm | - | 90 W/m² | - |
| 1787439488 | 27.22° C | 61% | 1014.6 hPa | 0 mm | - | 83 W/m² | - |
* Rain latest hour (hover to see other rain measurements)
** Current wind speed in m/s (hover to see current wind gust speed)